<?xml version="1.0" encoding="UTF-8" standalone="no" ?>
<gpx xmlns="http://www.topografix.com/GPX/1/1" xmlns:xsi="http://www.w3.org/2001/XMLSchema-instance" xsi:schemaLocation="http://www.topografix.com/GPX/1/1 http://www.topografix.com/GPX/1/1/gpx.xsd" version="1.1" creator="VisuGPX - https://www.visugpx.com">
  <metadata>
    <name>10km_rando</name>
  </metadata>
  <trk>
    <name><![CDATA[10km rando 2026-23051151]]></name>
    <extensions>
      <line xmlns="http://www.topografix.com/GPX/gpx_style/0/2">
        <color>0000FF</color>
        <width>4</width>
      </line>
    </extensions>
    <trkseg>
      <trkpt lat="45.99926" lon="4.17643">
        <ele>436</ele>
        <time>2026-02-01T12:02:17Z</time>
      </trkpt>
      <trkpt lat="45.99924" lon="4.17643">
        <ele>436</ele>
        <time>2026-02-01T12:02:20Z</time>
      </trkpt>
      <trkpt lat="45.99907" lon="4.17643">
        <ele>435</ele>
        <time>2026-02-01T12:02:42Z</time>
      </trkpt>
      <trkpt lat="45.9985" lon="4.1761">
        <ele>436</ele>
        <time>2026-02-01T12:04:04Z</time>
      </trkpt>
      <trkpt lat="45.99824" lon="4.1759">
        <ele>436</ele>
        <time>2026-02-01T12:04:44Z</time>
      </trkpt>
      <trkpt lat="45.99792" lon="4.17569">
        <ele>436</ele>
        <time>2026-02-01T12:05:31Z</time>
      </trkpt>
      <trkpt lat="45.9972" lon="4.1753">
        <ele>435</ele>
        <time>2026-02-01T12:07:13Z</time>
      </trkpt>
      <trkpt lat="45.99608" lon="4.17473">
        <ele>429</ele>
        <time>2026-02-01T12:09:52Z</time>
      </trkpt>
      <trkpt lat="45.99598" lon="4.17466">
        <ele>428</ele>
        <time>2026-02-01T12:10:07Z</time>
      </trkpt>
      <trkpt lat="45.99595" lon="4.17464">
        <ele>428</ele>
        <time>2026-02-01T12:10:11Z</time>
      </trkpt>
      <trkpt lat="45.99584" lon="4.17451">
        <ele>428</ele>
        <time>2026-02-01T12:10:30Z</time>
      </trkpt>
      <trkpt lat="45.99575" lon="4.17434">
        <ele>427</ele>
        <time>2026-02-01T12:10:50Z</time>
      </trkpt>
      <trkpt lat="45.99554" lon="4.17374">
        <ele>427</ele>
        <time>2026-02-01T12:11:52Z</time>
      </trkpt>
      <trkpt lat="45.99543" lon="4.17342">
        <ele>427</ele>
        <time>2026-02-01T12:12:25Z</time>
      </trkpt>
      <trkpt lat="45.99536" lon="4.17324">
        <ele>427</ele>
        <time>2026-02-01T12:12:44Z</time>
      </trkpt>
      <trkpt lat="45.99483" lon="4.17177">
        <ele>422</ele>
        <time>2026-02-01T12:15:18Z</time>
      </trkpt>
      <trkpt lat="45.99468" lon="4.1713">
        <ele>422</ele>
        <time>2026-02-01T12:16:06Z</time>
      </trkpt>
      <trkpt lat="45.99462" lon="4.17104">
        <ele>422</ele>
        <time>2026-02-01T12:16:31Z</time>
      </trkpt>
      <trkpt lat="45.99457" lon="4.17065">
        <ele>422</ele>
        <time>2026-02-01T12:17:08Z</time>
      </trkpt>
      <trkpt lat="45.99453" lon="4.17006">
        <ele>422</ele>
        <time>2026-02-01T12:18:03Z</time>
      </trkpt>
      <trkpt lat="45.99452" lon="4.16985">
        <ele>422</ele>
        <time>2026-02-01T12:18:22Z</time>
      </trkpt>
      <trkpt lat="45.99448" lon="4.16919">
        <ele>419</ele>
        <time>2026-02-01T12:19:24Z</time>
      </trkpt>
      <trkpt lat="45.99448" lon="4.16897">
        <ele>418</ele>
        <time>2026-02-01T12:19:44Z</time>
      </trkpt>
      <trkpt lat="45.99428" lon="4.16903">
        <ele>417</ele>
        <time>2026-02-01T12:20:12Z</time>
      </trkpt>
      <trkpt lat="45.99415" lon="4.16904">
        <ele>416</ele>
        <time>2026-02-01T12:20:29Z</time>
      </trkpt>
      <trkpt lat="45.99343" lon="4.16912">
        <ele>413</ele>
        <time>2026-02-01T12:22:05Z</time>
      </trkpt>
      <trkpt lat="45.99331" lon="4.16912">
        <ele>413</ele>
        <time>2026-02-01T12:22:21Z</time>
      </trkpt>
      <trkpt lat="45.99303" lon="4.16902">
        <ele>411</ele>
        <time>2026-02-01T12:23:00Z</time>
      </trkpt>
      <trkpt lat="45.99302" lon="4.16899">
        <ele>411</ele>
        <time>2026-02-01T12:23:03Z</time>
      </trkpt>
      <trkpt lat="45.99301" lon="4.16883">
        <ele>410</ele>
        <time>2026-02-01T12:23:18Z</time>
      </trkpt>
      <trkpt lat="45.99282" lon="4.16762">
        <ele>405</ele>
        <time>2026-02-01T12:25:13Z</time>
      </trkpt>
      <trkpt lat="45.99257" lon="4.16591">
        <ele>397</ele>
        <time>2026-02-01T12:27:55Z</time>
      </trkpt>
      <trkpt lat="45.99251" lon="4.16562">
        <ele>396</ele>
        <time>2026-02-01T12:28:23Z</time>
      </trkpt>
      <trkpt lat="45.99239" lon="4.16536">
        <ele>395</ele>
        <time>2026-02-01T12:28:52Z</time>
      </trkpt>
      <trkpt lat="45.99223" lon="4.16512">
        <ele>394</ele>
        <time>2026-02-01T12:29:23Z</time>
      </trkpt>
      <trkpt lat="45.99203" lon="4.16496">
        <ele>393</ele>
        <time>2026-02-01T12:29:53Z</time>
      </trkpt>
      <trkpt lat="45.99194" lon="4.16492">
        <ele>393</ele>
        <time>2026-02-01T12:30:06Z</time>
      </trkpt>
      <trkpt lat="45.992" lon="4.16491">
        <ele>393</ele>
        <time>2026-02-01T12:30:14Z</time>
      </trkpt>
      <trkpt lat="45.99204" lon="4.1649">
        <ele>393</ele>
        <time>2026-02-01T12:30:19Z</time>
      </trkpt>
      <trkpt lat="45.99264" lon="4.16499">
        <ele>393</ele>
        <time>2026-02-01T12:31:40Z</time>
      </trkpt>
      <trkpt lat="45.99305" lon="4.1652">
        <ele>393</ele>
        <time>2026-02-01T12:32:38Z</time>
      </trkpt>
      <trkpt lat="45.99336" lon="4.16543">
        <ele>394</ele>
        <time>2026-02-01T12:33:24Z</time>
      </trkpt>
      <trkpt lat="45.99373" lon="4.16555">
        <ele>397</ele>
        <time>2026-02-01T12:34:15Z</time>
      </trkpt>
      <trkpt lat="45.99415" lon="4.16539">
        <ele>398</ele>
        <time>2026-02-01T12:35:13Z</time>
      </trkpt>
      <trkpt lat="45.99455" lon="4.16511">
        <ele>398</ele>
        <time>2026-02-01T12:36:12Z</time>
      </trkpt>
      <trkpt lat="45.99471" lon="4.16508">
        <ele>398</ele>
        <time>2026-02-01T12:36:34Z</time>
      </trkpt>
      <trkpt lat="45.99492" lon="4.16507">
        <ele>399</ele>
        <time>2026-02-01T12:37:02Z</time>
      </trkpt>
      <trkpt lat="45.99501" lon="4.16507">
        <ele>400</ele>
        <time>2026-02-01T12:37:14Z</time>
      </trkpt>
      <trkpt lat="45.99502" lon="4.165">
        <ele>399</ele>
        <time>2026-02-01T12:37:21Z</time>
      </trkpt>
      <trkpt lat="45.99516" lon="4.16499">
        <ele>399</ele>
        <time>2026-02-01T12:37:39Z</time>
      </trkpt>
      <trkpt lat="45.99538" lon="4.1649">
        <ele>399</ele>
        <time>2026-02-01T12:38:10Z</time>
      </trkpt>
      <trkpt lat="45.99554" lon="4.16481">
        <ele>400</ele>
        <time>2026-02-01T12:38:33Z</time>
      </trkpt>
      <trkpt lat="45.9957" lon="4.1647">
        <ele>400</ele>
        <time>2026-02-01T12:38:56Z</time>
      </trkpt>
      <trkpt lat="45.9965" lon="4.16416">
        <ele>396</ele>
        <time>2026-02-01T12:40:54Z</time>
      </trkpt>
      <trkpt lat="45.99725" lon="4.16397">
        <ele>392</ele>
        <time>2026-02-01T12:42:36Z</time>
      </trkpt>
      <trkpt lat="45.99759" lon="4.16388">
        <ele>390</ele>
        <time>2026-02-01T12:43:22Z</time>
      </trkpt>
      <trkpt lat="45.99789" lon="4.16438">
        <ele>393</ele>
        <time>2026-02-01T12:44:23Z</time>
      </trkpt>
      <trkpt lat="45.99838" lon="4.16453">
        <ele>394</ele>
        <time>2026-02-01T12:45:30Z</time>
      </trkpt>
      <trkpt lat="45.99868" lon="4.16429">
        <ele>399</ele>
        <time>2026-02-01T12:46:16Z</time>
      </trkpt>
      <trkpt lat="45.99884" lon="4.16358">
        <ele>399</ele>
        <time>2026-02-01T12:47:25Z</time>
      </trkpt>
      <trkpt lat="45.99904" lon="4.16281">
        <ele>404</ele>
        <time>2026-02-01T12:48:41Z</time>
      </trkpt>
      <trkpt lat="45.99927" lon="4.16251">
        <ele>411</ele>
        <time>2026-02-01T12:49:23Z</time>
      </trkpt>
      <trkpt lat="45.99951" lon="4.16191">
        <ele>414</ele>
        <time>2026-02-01T12:50:27Z</time>
      </trkpt>
      <trkpt lat="45.99976" lon="4.1615">
        <ele>417</ele>
        <time>2026-02-01T12:51:17Z</time>
      </trkpt>
      <trkpt lat="46.00002" lon="4.1609">
        <ele>418</ele>
        <time>2026-02-01T12:52:23Z</time>
      </trkpt>
      <trkpt lat="46.00007" lon="4.16087">
        <ele>418</ele>
        <time>2026-02-01T12:52:30Z</time>
      </trkpt>
      <trkpt lat="46.00022" lon="4.16037">
        <ele>418</ele>
        <time>2026-02-01T12:53:21Z</time>
      </trkpt>
      <trkpt lat="46.00031" lon="4.15987">
        <ele>417</ele>
        <time>2026-02-01T12:54:09Z</time>
      </trkpt>
      <trkpt lat="46.0004" lon="4.15938">
        <ele>418</ele>
        <time>2026-02-01T12:54:56Z</time>
      </trkpt>
      <trkpt lat="46.00044" lon="4.15908">
        <ele>417</ele>
        <time>2026-02-01T12:55:24Z</time>
      </trkpt>
      <trkpt lat="46.0005" lon="4.15878">
        <ele>416</ele>
        <time>2026-02-01T12:55:53Z</time>
      </trkpt>
      <trkpt lat="46.00062" lon="4.15838">
        <ele>415</ele>
        <time>2026-02-01T12:56:33Z</time>
      </trkpt>
      <trkpt lat="46.00077" lon="4.158">
        <ele>414</ele>
        <time>2026-02-01T12:57:14Z</time>
      </trkpt>
      <trkpt lat="46.00083" lon="4.1579">
        <ele>414</ele>
        <time>2026-02-01T12:57:26Z</time>
      </trkpt>
      <trkpt lat="46.00129" lon="4.15709">
        <ele>413</ele>
        <time>2026-02-01T12:59:03Z</time>
      </trkpt>
      <trkpt lat="46.00176" lon="4.15715">
        <ele>416</ele>
        <time>2026-02-01T13:00:06Z</time>
      </trkpt>
      <trkpt lat="46.0019" lon="4.15715">
        <ele>418</ele>
        <time>2026-02-01T13:00:25Z</time>
      </trkpt>
      <trkpt lat="46.0025" lon="4.15704">
        <ele>422</ele>
        <time>2026-02-01T13:01:45Z</time>
      </trkpt>
      <trkpt lat="46.00275" lon="4.15703">
        <ele>422</ele>
        <time>2026-02-01T13:02:19Z</time>
      </trkpt>
      <trkpt lat="46.00293" lon="4.15705">
        <ele>422</ele>
        <time>2026-02-01T13:02:43Z</time>
      </trkpt>
      <trkpt lat="46.00355" lon="4.15731">
        <ele>424</ele>
        <time>2026-02-01T13:04:09Z</time>
      </trkpt>
      <trkpt lat="46.00368" lon="4.15735">
        <ele>425</ele>
        <time>2026-02-01T13:04:27Z</time>
      </trkpt>
      <trkpt lat="46.0041" lon="4.15734">
        <ele>427</ele>
        <time>2026-02-01T13:05:23Z</time>
      </trkpt>
      <trkpt lat="46.00419" lon="4.15734">
        <ele>427</ele>
        <time>2026-02-01T13:05:35Z</time>
      </trkpt>
      <trkpt lat="46.00424" lon="4.15736">
        <ele>427</ele>
        <time>2026-02-01T13:05:42Z</time>
      </trkpt>
      <trkpt lat="46.0044" lon="4.15746">
        <ele>427</ele>
        <time>2026-02-01T13:06:05Z</time>
      </trkpt>
      <trkpt lat="46.00477" lon="4.15784">
        <ele>423</ele>
        <time>2026-02-01T13:07:06Z</time>
      </trkpt>
      <trkpt lat="46.00504" lon="4.15806">
        <ele>421</ele>
        <time>2026-02-01T13:07:47Z</time>
      </trkpt>
      <trkpt lat="46.00511" lon="4.15815">
        <ele>421</ele>
        <time>2026-02-01T13:08:00Z</time>
      </trkpt>
      <trkpt lat="46.00559" lon="4.15882">
        <ele>421</ele>
        <time>2026-02-01T13:09:29Z</time>
      </trkpt>
      <trkpt lat="46.00565" lon="4.15885">
        <ele>421</ele>
        <time>2026-02-01T13:09:37Z</time>
      </trkpt>
      <trkpt lat="46.00589" lon="4.15894">
        <ele>422</ele>
        <time>2026-02-01T13:10:10Z</time>
      </trkpt>
      <trkpt lat="46.00634" lon="4.15934">
        <ele>422</ele>
        <time>2026-02-01T13:11:21Z</time>
      </trkpt>
      <trkpt lat="46.00652" lon="4.15944">
        <ele>422</ele>
        <time>2026-02-01T13:11:47Z</time>
      </trkpt>
      <trkpt lat="46.0066" lon="4.15959">
        <ele>422</ele>
        <time>2026-02-01T13:12:04Z</time>
      </trkpt>
      <trkpt lat="46.00707" lon="4.16116">
        <ele>422</ele>
        <time>2026-02-01T13:14:43Z</time>
      </trkpt>
      <trkpt lat="46.00736" lon="4.16215">
        <ele>423</ele>
        <time>2026-02-01T13:16:22Z</time>
      </trkpt>
      <trkpt lat="46.01011" lon="4.16086">
        <ele>421</ele>
        <time>2026-02-01T13:22:48Z</time>
      </trkpt>
      <trkpt lat="46.01026" lon="4.16079">
        <ele>420</ele>
        <time>2026-02-01T13:23:09Z</time>
      </trkpt>
      <trkpt lat="46.01036" lon="4.16071">
        <ele>420</ele>
        <time>2026-02-01T13:23:25Z</time>
      </trkpt>
      <trkpt lat="46.0104" lon="4.1606">
        <ele>419</ele>
        <time>2026-02-01T13:23:36Z</time>
      </trkpt>
      <trkpt lat="46.01048" lon="4.16028">
        <ele>419</ele>
        <time>2026-02-01T13:24:08Z</time>
      </trkpt>
      <trkpt lat="46.01068" lon="4.15962">
        <ele>417</ele>
        <time>2026-02-01T13:25:14Z</time>
      </trkpt>
      <trkpt lat="46.01133" lon="4.1576">
        <ele>416</ele>
        <time>2026-02-01T13:28:41Z</time>
      </trkpt>
      <trkpt lat="46.01148" lon="4.15719">
        <ele>416</ele>
        <time>2026-02-01T13:29:24Z</time>
      </trkpt>
      <trkpt lat="46.01156" lon="4.1572">
        <ele>416</ele>
        <time>2026-02-01T13:29:34Z</time>
      </trkpt>
      <trkpt lat="46.01166" lon="4.15724">
        <ele>415</ele>
        <time>2026-02-01T13:29:48Z</time>
      </trkpt>
      <trkpt lat="46.01177" lon="4.15733">
        <ele>414</ele>
        <time>2026-02-01T13:30:05Z</time>
      </trkpt>
      <trkpt lat="46.0123" lon="4.15778">
        <ele>410</ele>
        <time>2026-02-01T13:31:27Z</time>
      </trkpt>
      <trkpt lat="46.01255" lon="4.15803">
        <ele>409</ele>
        <time>2026-02-01T13:32:08Z</time>
      </trkpt>
      <trkpt lat="46.0127" lon="4.1578">
        <ele>408</ele>
        <time>2026-02-01T13:32:37Z</time>
      </trkpt>
      <trkpt lat="46.013" lon="4.15692">
        <ele>408</ele>
        <time>2026-02-01T13:34:08Z</time>
      </trkpt>
      <trkpt lat="46.01327" lon="4.15596">
        <ele>414</ele>
        <time>2026-02-01T13:35:44Z</time>
      </trkpt>
      <trkpt lat="46.01356" lon="4.15553">
        <ele>416</ele>
        <time>2026-02-01T13:36:39Z</time>
      </trkpt>
      <trkpt lat="46.01368" lon="4.15549">
        <ele>415</ele>
        <time>2026-02-01T13:36:56Z</time>
      </trkpt>
      <trkpt lat="46.01453" lon="4.15556">
        <ele>409</ele>
        <time>2026-02-01T13:38:49Z</time>
      </trkpt>
      <trkpt lat="46.01504" lon="4.15551">
        <ele>406</ele>
        <time>2026-02-01T13:39:58Z</time>
      </trkpt>
      <trkpt lat="46.016" lon="4.15549">
        <ele>396</ele>
        <time>2026-02-01T13:42:06Z</time>
      </trkpt>
      <trkpt lat="46.01657" lon="4.15551">
        <ele>386</ele>
        <time>2026-02-01T13:43:22Z</time>
      </trkpt>
      <trkpt lat="46.01663" lon="4.15804">
        <ele>384</ele>
        <time>2026-02-01T13:47:16Z</time>
      </trkpt>
      <trkpt lat="46.01681" lon="4.1582">
        <ele>381</ele>
        <time>2026-02-01T13:47:45Z</time>
      </trkpt>
      <trkpt lat="46.01687" lon="4.15854">
        <ele>379</ele>
        <time>2026-02-01T13:48:17Z</time>
      </trkpt>
      <trkpt lat="46.01679" lon="4.15889">
        <ele>378</ele>
        <time>2026-02-01T13:48:51Z</time>
      </trkpt>
      <trkpt lat="46.01612" lon="4.1606">
        <ele>377</ele>
        <time>2026-02-01T13:51:53Z</time>
      </trkpt>
      <trkpt lat="46.0165" lon="4.16098">
        <ele>377</ele>
        <time>2026-02-01T13:52:55Z</time>
      </trkpt>
      <trkpt lat="46.01745" lon="4.16095">
        <ele>389</ele>
        <time>2026-02-01T13:55:02Z</time>
      </trkpt>
      <trkpt lat="46.01824" lon="4.16058">
        <ele>380</ele>
        <time>2026-02-01T13:56:53Z</time>
      </trkpt>
      <trkpt lat="46.01832" lon="4.1608">
        <ele>383</ele>
        <time>2026-02-01T13:57:16Z</time>
      </trkpt>
      <trkpt lat="46.01774" lon="4.16158">
        <ele>394</ele>
        <time>2026-02-01T13:59:02Z</time>
      </trkpt>
      <trkpt lat="46.0175" lon="4.16207">
        <ele>399</ele>
        <time>2026-02-01T13:59:57Z</time>
      </trkpt>
      <trkpt lat="46.01693" lon="4.1637">
        <ele>405</ele>
        <time>2026-02-01T14:02:46Z</time>
      </trkpt>
      <trkpt lat="46.0169" lon="4.16378">
        <ele>405</ele>
        <time>2026-02-01T14:02:55Z</time>
      </trkpt>
      <trkpt lat="46.01635" lon="4.16488">
        <ele>410</ele>
        <time>2026-02-01T14:05:00Z</time>
      </trkpt>
      <trkpt lat="46.01618" lon="4.16519">
        <ele>411</ele>
        <time>2026-02-01T14:05:37Z</time>
      </trkpt>
      <trkpt lat="46.01575" lon="4.16568">
        <ele>413</ele>
        <time>2026-02-01T14:06:50Z</time>
      </trkpt>
      <trkpt lat="46.01531" lon="4.16622">
        <ele>414</ele>
        <time>2026-02-01T14:08:07Z</time>
      </trkpt>
      <trkpt lat="46.01509" lon="4.16655">
        <ele>416</ele>
        <time>2026-02-01T14:08:50Z</time>
      </trkpt>
      <trkpt lat="46.01417" lon="4.16832">
        <ele>420</ele>
        <time>2026-02-01T14:12:15Z</time>
      </trkpt>
      <trkpt lat="46.01396" lon="4.1687">
        <ele>421</ele>
        <time>2026-02-01T14:13:00Z</time>
      </trkpt>
      <trkpt lat="46.01376" lon="4.16904">
        <ele>422</ele>
        <time>2026-02-01T14:13:41Z</time>
      </trkpt>
      <trkpt lat="46.01352" lon="4.1692">
        <ele>423</ele>
        <time>2026-02-01T14:14:16Z</time>
      </trkpt>
      <trkpt lat="46.01342" lon="4.1693">
        <ele>424</ele>
        <time>2026-02-01T14:14:32Z</time>
      </trkpt>
      <trkpt lat="46.01333" lon="4.1695">
        <ele>425</ele>
        <time>2026-02-01T14:14:54Z</time>
      </trkpt>
      <trkpt lat="46.01332" lon="4.16962">
        <ele>425</ele>
        <time>2026-02-01T14:15:06Z</time>
      </trkpt>
      <trkpt lat="46.01223" lon="4.16957">
        <ele>423</ele>
        <time>2026-02-01T14:17:31Z</time>
      </trkpt>
      <trkpt lat="46.01199" lon="4.16977">
        <ele>423</ele>
        <time>2026-02-01T14:18:08Z</time>
      </trkpt>
      <trkpt lat="46.01156" lon="4.16979">
        <ele>421</ele>
        <time>2026-02-01T14:19:06Z</time>
      </trkpt>
      <trkpt lat="46.01101" lon="4.16974">
        <ele>417</ele>
        <time>2026-02-01T14:20:19Z</time>
      </trkpt>
      <trkpt lat="46.01076" lon="4.17001">
        <ele>417</ele>
        <time>2026-02-01T14:21:01Z</time>
      </trkpt>
      <trkpt lat="46.01048" lon="4.17023">
        <ele>419</ele>
        <time>2026-02-01T14:21:43Z</time>
      </trkpt>
      <trkpt lat="46.01025" lon="4.17001">
        <ele>420</ele>
        <time>2026-02-01T14:22:20Z</time>
      </trkpt>
      <trkpt lat="46.00977" lon="4.16967">
        <ele>424</ele>
        <time>2026-02-01T14:23:32Z</time>
      </trkpt>
      <trkpt lat="46.00903" lon="4.16926">
        <ele>428</ele>
        <time>2026-02-01T14:25:18Z</time>
      </trkpt>
      <trkpt lat="46.00872" lon="4.17042">
        <ele>430</ele>
        <time>2026-02-01T14:27:13Z</time>
      </trkpt>
      <trkpt lat="46.00649" lon="4.17034">
        <ele>434</ele>
        <time>2026-02-01T14:32:10Z</time>
      </trkpt>
      <trkpt lat="46.00574" lon="4.16974">
        <ele>434</ele>
        <time>2026-02-01T14:34:05Z</time>
      </trkpt>
      <trkpt lat="46.00459" lon="4.1693">
        <ele>436</ele>
        <time>2026-02-01T14:36:44Z</time>
      </trkpt>
      <trkpt lat="46.00383" lon="4.16944">
        <ele>435</ele>
        <time>2026-02-01T14:38:26Z</time>
      </trkpt>
      <trkpt lat="46.0032" lon="4.16917">
        <ele>433</ele>
        <time>2026-02-01T14:39:54Z</time>
      </trkpt>
      <trkpt lat="46.00307" lon="4.17032">
        <ele>433</ele>
        <time>2026-02-01T14:41:42Z</time>
      </trkpt>
      <trkpt lat="46.00308" lon="4.17028">
        <ele>433</ele>
        <time>2026-02-01T14:41:46Z</time>
      </trkpt>
      <trkpt lat="46.00321" lon="4.16922">
        <ele>433</ele>
        <time>2026-02-01T14:43:25Z</time>
      </trkpt>
      <trkpt lat="46.00329" lon="4.16822">
        <ele>433</ele>
        <time>2026-02-01T14:44:59Z</time>
      </trkpt>
      <trkpt lat="46.00335" lon="4.16774">
        <ele>433</ele>
        <time>2026-02-01T14:45:44Z</time>
      </trkpt>
      <trkpt lat="46.00242" lon="4.16791">
        <ele>430</ele>
        <time>2026-02-01T14:47:49Z</time>
      </trkpt>
      <trkpt lat="46.0021" lon="4.16799">
        <ele>428</ele>
        <time>2026-02-01T14:48:32Z</time>
      </trkpt>
      <trkpt lat="46.00199" lon="4.16806">
        <ele>427</ele>
        <time>2026-02-01T14:48:48Z</time>
      </trkpt>
      <trkpt lat="46.00177" lon="4.16828">
        <ele>426</ele>
        <time>2026-02-01T14:49:24Z</time>
      </trkpt>
      <trkpt lat="46.00156" lon="4.16847">
        <ele>424</ele>
        <time>2026-02-01T14:49:57Z</time>
      </trkpt>
      <trkpt lat="46.00147" lon="4.16851">
        <ele>423</ele>
        <time>2026-02-01T14:50:10Z</time>
      </trkpt>
      <trkpt lat="46.00131" lon="4.16853">
        <ele>422</ele>
        <time>2026-02-01T14:50:31Z</time>
      </trkpt>
      <trkpt lat="46.00124" lon="4.16856">
        <ele>421</ele>
        <time>2026-02-01T14:50:41Z</time>
      </trkpt>
      <trkpt lat="46.00116" lon="4.1687">
        <ele>420</ele>
        <time>2026-02-01T14:50:58Z</time>
      </trkpt>
      <trkpt lat="46.00088" lon="4.16937">
        <ele>418</ele>
        <time>2026-02-01T14:52:10Z</time>
      </trkpt>
      <trkpt lat="46.00079" lon="4.16934">
        <ele>417</ele>
        <time>2026-02-01T14:52:23Z</time>
      </trkpt>
      <trkpt lat="46.00008" lon="4.16892">
        <ele>409</ele>
        <time>2026-02-01T14:54:05Z</time>
      </trkpt>
      <trkpt lat="45.9997" lon="4.16872">
        <ele>408</ele>
        <time>2026-02-01T14:54:59Z</time>
      </trkpt>
      <trkpt lat="45.99947" lon="4.16866">
        <ele>407</ele>
        <time>2026-02-01T14:55:30Z</time>
      </trkpt>
      <trkpt lat="45.9993" lon="4.16865">
        <ele>406</ele>
        <time>2026-02-01T14:55:53Z</time>
      </trkpt>
      <trkpt lat="45.99918" lon="4.16866">
        <ele>406</ele>
        <time>2026-02-01T14:56:09Z</time>
      </trkpt>
      <trkpt lat="45.99894" lon="4.16872">
        <ele>407</ele>
        <time>2026-02-01T14:56:41Z</time>
      </trkpt>
      <trkpt lat="45.99888" lon="4.16872">
        <ele>408</ele>
        <time>2026-02-01T14:56:49Z</time>
      </trkpt>
      <trkpt lat="45.99871" lon="4.16848">
        <ele>408</ele>
        <time>2026-02-01T14:57:21Z</time>
      </trkpt>
      <trkpt lat="45.99855" lon="4.16832">
        <ele>409</ele>
        <time>2026-02-01T14:57:47Z</time>
      </trkpt>
      <trkpt lat="45.99844" lon="4.16825">
        <ele>409</ele>
        <time>2026-02-01T14:58:03Z</time>
      </trkpt>
      <trkpt lat="45.99811" lon="4.16818">
        <ele>410</ele>
        <time>2026-02-01T14:58:48Z</time>
      </trkpt>
      <trkpt lat="45.99773" lon="4.16807">
        <ele>412</ele>
        <time>2026-02-01T14:59:40Z</time>
      </trkpt>
      <trkpt lat="45.99751" lon="4.16803">
        <ele>414</ele>
        <time>2026-02-01T15:00:09Z</time>
      </trkpt>
      <trkpt lat="45.99739" lon="4.16803">
        <ele>414</ele>
        <time>2026-02-01T15:00:25Z</time>
      </trkpt>
      <trkpt lat="45.99734" lon="4.16804">
        <ele>415</ele>
        <time>2026-02-01T15:00:32Z</time>
      </trkpt>
      <trkpt lat="45.9972" lon="4.1681">
        <ele>416</ele>
        <time>2026-02-01T15:00:51Z</time>
      </trkpt>
      <trkpt lat="45.99708" lon="4.16822">
        <ele>417</ele>
        <time>2026-02-01T15:01:11Z</time>
      </trkpt>
      <trkpt lat="45.99657" lon="4.16884">
        <ele>424</ele>
        <time>2026-02-01T15:02:40Z</time>
      </trkpt>
      <trkpt lat="45.99639" lon="4.16899">
        <ele>424</ele>
        <time>2026-02-01T15:03:08Z</time>
      </trkpt>
      <trkpt lat="45.99631" lon="4.16905">
        <ele>425</ele>
        <time>2026-02-01T15:03:20Z</time>
      </trkpt>
      <trkpt lat="45.99628" lon="4.16948">
        <ele>426</ele>
        <time>2026-02-01T15:04:00Z</time>
      </trkpt>
      <trkpt lat="45.99614" lon="4.17046">
        <ele>427</ele>
        <time>2026-02-01T15:05:33Z</time>
      </trkpt>
      <trkpt lat="45.99627" lon="4.17082">
        <ele>428</ele>
        <time>2026-02-01T15:06:10Z</time>
      </trkpt>
      <trkpt lat="45.99648" lon="4.17137">
        <ele>429</ele>
        <time>2026-02-01T15:07:08Z</time>
      </trkpt>
      <trkpt lat="45.99656" lon="4.17188">
        <ele>429</ele>
        <time>2026-02-01T15:07:57Z</time>
      </trkpt>
      <trkpt lat="45.99664" lon="4.17206">
        <ele>430</ele>
        <time>2026-02-01T15:08:17Z</time>
      </trkpt>
      <trkpt lat="45.99668" lon="4.1722">
        <ele>430</ele>
        <time>2026-02-01T15:08:31Z</time>
      </trkpt>
      <trkpt lat="45.9967" lon="4.17227">
        <ele>430</ele>
        <time>2026-02-01T15:08:38Z</time>
      </trkpt>
      <trkpt lat="45.99672" lon="4.17241">
        <ele>430</ele>
        <time>2026-02-01T15:08:51Z</time>
      </trkpt>
      <trkpt lat="45.99674" lon="4.17274">
        <ele>431</ele>
        <time>2026-02-01T15:09:22Z</time>
      </trkpt>
      <trkpt lat="45.99674" lon="4.17334">
        <ele>432</ele>
        <time>2026-02-01T15:10:17Z</time>
      </trkpt>
      <trkpt lat="45.99676" lon="4.17344">
        <ele>432</ele>
        <time>2026-02-01T15:10:27Z</time>
      </trkpt>
      <trkpt lat="45.99688" lon="4.17363">
        <ele>432</ele>
        <time>2026-02-01T15:10:51Z</time>
      </trkpt>
      <trkpt lat="45.99701" lon="4.17378">
        <ele>432</ele>
        <time>2026-02-01T15:11:13Z</time>
      </trkpt>
      <trkpt lat="45.99748" lon="4.17414">
        <ele>432</ele>
        <time>2026-02-01T15:12:24Z</time>
      </trkpt>
      <trkpt lat="45.99796" lon="4.17466">
        <ele>432</ele>
        <time>2026-02-01T15:13:44Z</time>
      </trkpt>
      <trkpt lat="45.99799" lon="4.17492">
        <ele>433</ele>
        <time>2026-02-01T15:14:09Z</time>
      </trkpt>
      <trkpt lat="45.99805" lon="4.1751">
        <ele>433</ele>
        <time>2026-02-01T15:14:27Z</time>
      </trkpt>
      <trkpt lat="45.99815" lon="4.17544">
        <ele>435</ele>
        <time>2026-02-01T15:15:01Z</time>
      </trkpt>
      <trkpt lat="45.99824" lon="4.1759">
        <ele>436</ele>
        <time>2026-02-01T15:15:46Z</time>
      </trkpt>
      <trkpt lat="45.9985" lon="4.1761">
        <ele>436</ele>
        <time>2026-02-01T15:16:25Z</time>
      </trkpt>
      <trkpt lat="45.99907" lon="4.17643">
        <ele>435</ele>
        <time>2026-02-01T15:17:47Z</time>
      </trkpt>
      <trkpt lat="45.99919" lon="4.17643">
        <ele>435</ele>
        <time>2026-02-01T15:18:03Z</time>
      </trkpt>
    </trkseg>
  </trk>
</gpx>